Regional Weather Roundup
Issued by NWS Nashville, TN

Home | Current Version | Previous Version | Text Only | Print | Product List | Glossary On
Versions: 1 2 3 4 5 6 7 8 9 10 11 12 13 14 15 16 17 18 19 20 21 22 23 24 25 26 27
000
ASUS44 KOHX 231810
RWROHX
MIDDLE TENNESSEE HOURLY WEATHER ROUNDUP
NATIONAL WEATHER SERVICE NASHVILLE TN
100 PM CDT SAT SEP 23 2017

NOTE: "FAIR" INDICATES FEW OR NO CLOUDS BELOW 12,000 FEET WITH
NO SIGNIFICANT WEATHER AND/OR OBSTRUCTIONS TO VISIBILITY.

* THESE REPORTS ARE NOT UNDER NWS QUALITY CONTROL AND MAY NOT
  REPORT WEATHER SUCH AS PRECIPITATION AND FOG.


TNZ005>011-023>034-057-059-062>066-078-080-231900
...NORTHERN MIDDLE TENNESSEE...

CITY           SKY/WX    TMP DP  RH WIND       PRES   REMARKS
CLARKSVILLE    SUNNY     89  67  47 VRB3      30.05F HX  92
CROSSVILLE     PTSUNNY   82  64  54 N5        30.12F
GALLATIN       SUNNY     88  68  51 CALM      30.08F HX  91
DICKSON        MOSUNNY   86  70  58 NE7       30.06F HX  90
LEBANON        MOSUNNY   88  67  49 CALM      30.05F HX  91
NASHVILLE      PTSUNNY   89  68  49 VRB5      30.06F HX  93
PORTLAND       PTSUNNY   84  72  65 NE6       30.06F
SMYRNA         MOSUNNY   87  66  50 CALM      30.07F
SPARTA         MOSUNNY   86  68  54 VRB3      30.07F
SPRINGFIELD    SUNNY     86  66  51 CALM      30.04F
WEST NASHVILLE SUNNY     88  66  48 CALM      30.03F HX  90
$$
TNZ056-058-060-061-075>077-079-093>097-231900
...SOUTHERN MIDDLE TENNESSEE...

CITY           SKY/WX    TMP DP  RH WIND       PRES   REMARKS
COLUMBIA       PTSUNNY   88 N/A N/A N5        30.03F
FAYETTEVILLE   SUNNY     86  70  58 VRB3      30.06F HX  90
MCMINNVILLE    MOSUNNY   88  70  55 E6        30.07F HX  92
PULASKI        PTSUNNY   88  68  51 CALM      30.04F HX  91
SHELBYVILLE    MOSUNNY   86  68  54 N8        30.06F
TULLAHOMA      MOSUNNY   82  64  54 NE5       30.08F
WINCHESTER     MOSUNNY   84  68  58 N5        30.06F
$$


...KEY TO REMARKS...
VSB - VISIBILITY IN MILES
WCI - WIND CHILL INDEX
HX  - HEAT INDEX





USA.gov is the U.S. government's official web portal to all federal, state and local government web resources and services.